Location: Bois de la Silve
(44.4667°N, 6.7833°E)
Time: 23:50:01
(UTC+00:00)

USA 238 DEB - Pass Details

Date: 25 October 2020
Orbit: 1001 x 1211 km, 63.5° (Epoch: 22 November)

Event Time Altitude Azimuth Distance (km) Brightness Sun altitude
Exits shadow 04:49:59 18° 276° (W) 2,316 4.8 -13.3°
Maximum altitude 04:53:59 31° 326° (NW) 1,757 4.5 -12.6°
Drops below altitude 10° 05:00:05 10° 27° (NNE) 2,953 6.3 -11.5°
Sets 05:03:12 0° 38° (NE) 3,949 7.1 -11.0°
